Погода в Милатосе

Греция     35°18′28″N   25°34′00″E
темп.,
°C
ветер,
м/с
пор.,
м/с
влажн.,
%
обл.,
%
осадки,
мм/ч
давл.,
гПа
погр.,
м
15 мая, сб
сб1500:00+15юв11550 0.0 101611
03:00+15ююз11548 0.0 101511
06:00+15ю12465 0.0 101411
09:00+21вюв01320 0.0 1014330
12:00+24з132816 0.0 10141017
15:00+24сз3531100 0.0 10121151
18:00+21сз2338100 0.0 1012548
21:00+16в01587 0.0 101116
16 мая, вс
вс1600:00+16зюз12491 0.0 101047
03:00+14сз225399 0.0 101053
06:00+13сз2363100 0.0 1010151
09:00+16зсз555915 0.0 1011532
12:00+18сз555961 0.0 1011834
15:00+19сз44588 0.0 1011902
18:00+17сз345991 0.0 1011641
21:00+14зсз357920 0.0 1012198
17 мая, пн
пн1700:00+13зсз23795 0.0 1013123
03:00+13з12665 0.0 101262
06:00+13зсз11655 0.0 101233
09:00+18сз22490 0.0 1013344
12:00+21ссз325010 0.0 1014776
15:00+21ссз335515 0.0 1014808
18:00+20ссз33610 0.0 1014518
21:00+17з01770 0.0 101518
18 мая, вт
вт1800:00+17ююз01700 0.0 101411
03:00+17зюз11660 0.0 101311
06:00+17зсз11620 0.0 101411
09:00+22сз23380 0.0 1014374
12:00+25с22360 0.0 1015803
15:00+25с23403 0.0 1014838
18:00+23сз23460 0.0 1014592
21:00+20з22551 0.0 101417
19 мая, ср
ср1900:00+20з114727 0.0 101411
03:00+20зюз223824 0.0 101311
06:00+20з22405 0.0 101311
09:00+25сз12300 0.0 1013365
12:00+28сз23282 0.0 10121096
15:00+26с23310 0.0 1012996
18:00+23сз35390 0.0 1012428
21:00+21зсз23420 0.0 101233